Location: Powder Track
(41.8531°N, 72.3584°W)
Time: 18:42:05
(UTC+00:00)

Transit 4A - Pass Details

Date: 10 August 2021
Orbit: 871 x 974 km, 66.8° (Epoch: 19 September)

Event Time Altitude Azimuth Distance (km) Brightness Sun altitude
Rises 03:15:58 0° 227° (SW) 3,484 - -28.3°
Reaches altitude 10° 03:18:34 10° 233° (SW) 2,537 - -28.5°
Exits shadow 03:20:16 19° 241° (WSW) 1,956 9.5 -28.6°
Maximum altitude 03:24:10 46° 306° (NW) 1,159 8.7 -28.9°
Drops below altitude 10° 03:29:46 10° 20° (NNE) 2,525 10.7 -29.4°
Sets 03:32:22 0° 26° (NNE) 3,467 11.4 -29.6°
